Overview Statistics Trail Chart Weather Telemetry Raw packets
 

This is the latest recevied weather packets stored in our database for station/object KQ4WWD. If no packets are shown the sender has not sent any weather packets the latest 10 day(s).

<< 80 81 82 83 84 85 86 >>
Time Temp. Humidity Pressure Rain* Wind** Luminosity Snow
1788023262 33.33° C 64% 1018 hPa 0 mm - 724 W/m² -
1788022956 33.89° C 65% 1018.1 hPa 0 mm - 725 W/m² -
1788022654 33.33° C 65% 1018.2 hPa 0 mm - 722 W/m² -
1788022353 33.33° C 65% 1018.3 hPa 0 mm - 722 W/m² -
1788022053 33.33° C 69% 1018.4 hPa 0 mm - 717 W/m² -
1788021747 33.33° C 68% 1018.5 hPa 0 mm - 713 W/m² -
1788021445 33.89° C 65% 1018.4 hPa 0 mm - 594 W/m² -
1788021140 33.89° C 67% 1018.6 hPa 0 mm - 743 W/m² -
1788020835 33.33° C 69% 1018.5 hPa 0 mm - 756 W/m² -
1788020530 33.33° C 67% 1018.5 hPa 0 mm - 722 W/m² -
1788020227 33.33° C 69% 1018.5 hPa 0 mm - 354 W/m² -
1788019921 32.22° C 69% 1018.5 hPa 0 mm - 760 W/m² -
1788019617 31.67° C 75% 1018.7 hPa 0 mm - 769 W/m² -
1788019316 31.67° C 75% 1018.7 hPa 0 mm - 172 W/m² -
1788019014 31.67° C 76% 1018.7 hPa 0 mm - 217 W/m² -
1788018709 32.22° C 75% 1018.6 hPa 0 mm - 205 W/m² -
1788018408 32.22° C 74% 1018.8 hPa 0 mm - 720 W/m² -
1788018103 32.78° C 74% 1018.8 hPa 0 mm - 660 W/m² -
1788017799 32.22° C 75% 1018.4 hPa 0 mm - 737 W/m² -
1788017496 32.22° C 74% 1018.7 hPa 0 mm - 704 W/m² -
1788017193 31.67° C 76% 1018.5 hPa 0 mm - 676 W/m² -
1788016892 32.22° C 75% 1018.2 hPa 0 mm - 644 W/m² -
1788016591 31.67° C 76% 1018.3 hPa 0 mm - 664 W/m² -
1788016285 31.11° C 78% 1018.4 hPa 0 mm - 703 W/m² -
1788015985 31.67° C 77% 1018.5 hPa 0 mm - 745 W/m² -

* Rain latest hour (hover to see other rain measurements)
** Current wind speed in m/s (hover to see current wind gust speed)